Regional Weather Roundup
Issued by NWS

Home | Current Version | Previous Version | Graphics & Text | Print | Product List | Glossary On
Versions: 1 2 3 4 5 6 7 8 9 10 11 12 13 14 15 16 17 18 19 20 21 22 23 24 25 26 27
000
ASUS45 KTFX 161210
RWRMT
MONTANA REGIONAL WEATHER ROUNDUP
NATIONAL WEATHER SERVICE GREAT FALLS MT
500 AM MST SAT DEC 16 2017

NOTE: "FAIR" INDICATES FEW OR NO CLOUDS BELOW 12000 FEET WITH NO
SIGNIFICANT WEATHER AND/OR OBSTRUCTIONS TO VISIBILITY.

MTZ001>007-043-161300-
WEST OF THE DIVIDE

CITY           SKY/WX    TMP DP  RH WIND       PRES   REMARKS
KALISPELL      CLOUDY    25  25 100 W5        30.01R FOG
MISSOULA       CLOUDY    28  27  96 CALM      30.01R FOG
BUTTE          LGT SNOW  26  23  88 CALM      29.87F FOG
MULLAN PASS    CLOUDY    19  14  81 VRB3      29.92R HAZE
ANACONDA         N/A     27  27 100 CALM      29.91S
DEER LODGE       N/A     28  28 100 CALM      29.94R
EUREKA           N/A     27  23  86 MISG      30.06R
HAMILTON         N/A     28  27  93 CALM      29.99R
LIBBY            N/A     27  27 100 CALM      30.05S
PLAINS           N/A     24  20  85 CALM      30.05R
RONAN            N/A     28  26  92 CALM      30.04R
$$

MTZ008-052>055-161300-
SOUTHWEST MONTANA

CITY           SKY/WX    TMP DP  RH WIND       PRES   REMARKS
BOZEMAN        LGT SNOW  29  28  96 W3        29.88S VSB 1
DILLON         CLOUDY    24  22  91 CALM      29.85R
W YELLOWSTONE  LGT SNOW  25  23  93 SW6       29.84F WCI  18
ENNIS          LGT SNOW  28  27  93 S9        29.89S WCI  20
THREE FORKS      N/A     28  27  96 CALM      29.89S VSB 1
TWIN BRIDGES     N/A     28  22  78 CALM      29.87S
$$

MTZ009-010-012-014-046-048-049-054-161300-
EAST SLOPES AND CENTRAL MONTANA

CITY           SKY/WX    TMP DP  RH WIND       PRES   REMARKS
CUT BANK       LGT SNOW  29  28  96 CALM      29.90S VSB 1
GREAT FALLS    CLOUDY    28  25  88 NW3       29.91S
MALMSTROM AFB  LGT RAIN  32  28  86 CALM      29.92R
HELENA         CLOUDY    29  28  96 NW6       29.90S FOG     WCI  23
BOWMANS CRNR   FLURRIES  27  26  96 NE6       29.87S WCI  20
CHOTEAU          N/A     27  27 100 CALM      29.93R
FAIRFIELD      FLURRIES  27  25  93 CALM      29.90S
POWER          MOCLDY    26  26  96 W6        29.90R WCI  20
RAYNESFORD     CLOUDY    31  23  72 SE9       29.90R WCI  23
ULM            CLOUDY    29  28  97 CALM      29.91R
$$

MTZ011-013-016-021-045-047-050-051-161300-
NORTH CENTRAL MONTANA

CITY           SKY/WX    TMP DP  RH WIND       PRES   REMARKS
HAVRE          CLOUDY    29  28  96 SW5       29.94R
LEWISTOWN      CLOUDY    30  29  96 CALM      29.88R
N BAR RANCH    CLOUDY    30  19  64 W5        29.89R
CHINOOK          N/A     30  30 100 W3        29.94S
DENTON         LGT RAIN  30  27  87 MISG      29.88R
GEYSER         FLURRIES  29  24  83 SW6       29.89S WCI  23
GRASS RANGE    MOCLDY    31  28  90 W5        29.86R
STANFORD       FLURRIES  28  25  89 NW8       29.88S WCI  20
WINIFRED       MOCLDY    30  30  99 W6        29.90R WCI  24
$$

MTZ017>020-022>027-061-062-161300-
NORTHEAST MONTANA

CITY           SKY/WX    TMP DP  RH WIND       PRES   REMARKS
GLASGOW        FAIR      25  23  92 W6        29.89R WCI  18
GLENDIVE       FAIR      31  26  82 NW18      29.86R WCI  19
JORDAN           N/A     27  23  85 CALM      29.90R
SIDNEY         FAIR      30  25  81 NW10      29.85R WCI  21
WOLF POINT     FAIR      29  22  75 W9        29.88R WCI  20
MALTA          CLOUDY    30  28  93 W8        29.92R WCI  23
PLENTYWOOD       N/A     27  23  86 NW13      29.81R WCI  16
POPLAR           N/A     27  19  74 NW5       29.86R
SCOBEY           N/A     25  16  68 W10       29.82R WCI  15
$$

MTZ028>42-056>058-161300-
SOUTHCENTRAL AND SOUTHEAST MONTANA

CITY           SKY/WX    TMP DP  RH WIND       PRES   REMARKS
BAKER          FAIR      31  30  96 NW12      29.84R WCI  22
BILLINGS       LGT SNOW  31  31 100 NE10      29.89S VSB 3/4 WCI  22
LIVINGSTON     LGT SNOW  32  32 100 NW3       29.86S VSB 3/4
MILES CITY     FAIR      33  28  81 NW5       29.90R
BIG TIMBER     FOG       32  32 100 CALM      29.89F VSB 1
FORSYTH          N/A     34  34 100 W6        29.90S WCI  29
LAUREL           N/A     32  32 100 NE10      29.90S FOG     WCI  24
$$

REGIONAL REPORTS...DAKOTAS

CITY           SKY/WX    TMP DP  RH WIND       PRES   REMARKS
WILLISTON      CLOUDY    32   3  29 W8        29.81R WCI  25
MINOT          CLOUDY    36  31  82 W14       29.72R WCI  27
DICKINSON      FAIR      31  28  89 NW13      29.77R WCI  21
BEACH          FAIR      30  28  93 NW15      29.85R WCI  19
CROSBY         CLOUDY    34  30  86 NW17G23   29.78R WCI  23
TIOGA          CLOUDY    32  32 100 NW16      29.77R WCI  21
WATFORD CITY   CLOUDY    32  28  86 W12       29.80R WCI  23
BISMARCK       MOCLDY    37  34  89 W6        29.76R
GRAND FORKS    CLOUDY    21  18  88 E5        29.75R
FARGO          CLOUDY    26  22  84 CALM      29.71R
BUFFALO SD       N/A     34  30  85 NW15      29.76R WCI  24
RAPID CITY     FAIR      38  20  48 N14       29.80R WCI  30
$$

REGIONAL REPORTS...WYOMING/IDAHO/WASHINGTON

CITY           SKY/WX    TMP DP  RH WIND       PRES   REMARKS
GILLETTE       CLOUDY    28  21  75 CALM      29.84S
SHERIDAN       LGT SNOW  33  32  96 W7        29.88S VSB 1   WCI  27
BUFFALO WY     CLOUDY    35  25  66 N15       29.85S WCI  25
CODY           CLOUDY    32  29  88 N8        29.85R WCI  25
YELLOWSTONE LA   N/A     20  18  92 CALM      29.84F
IDAHO FALLS    LGT SNOW  25  23  92 S8        29.92F FOG     WCI  16
SALMON         FLURRIES  22  20  92 CALM      29.99S
BOISE          CLOUDY    24  22  91 NW6       30.09S FOG     WCI  17
SPOKANE        FOG       25  25 100 SW7       30.13F VSB 1/2 WCI  17
$$

REGIONAL REPORTS...ALBERTA

CITY           SKY/WX    TMP DP  RH WIND       PRES   REMARKS
EDMONTON       CLEAR     30  16  55 W16       29.83R WCI  19
CALGARY        MOCLDY    28  23  80 SW5       29.90S
LETHBRIDGE     FLURRIES  32  30  93 SE8       29.93R WCI  25
MEDICINE HAT   CLOUDY    30  25  80 W8        29.93R WCI  23
$$

REGIONAL REPORTS...SASKATCHEWAN

CITY           SKY/WX    TMP DP  RH WIND       PRES   REMARKS
SWIFT CURRENT  CLEAR     21  14  73 W13       29.83R WCI   9
REGINA         CLEAR     27  25  93 W10       29.77R WCI  17
SASKATOON      CLEAR     27  19  74 W14       29.74R WCI  15
$$




USA.gov is the U.S. government's official web portal to all federal, state and local government web resources and services.